Time,TemperatureF,DewpointF,PressureIn,WindDirection,WindDirectionDegrees,WindSpeedMPH,WindSpeedGustMPH,Humidity,HourlyPrecipIn,Conditions,Clouds,dailyrainin,SoftwareType,DateUTC
2013-01-01 00:00:00,35.4,22.1,30.11,South,180,0.0,0.0,58,0.00,,,0.00,pywws,2013-01-01 05:00:00,
2013-01-01 00:02:00,35.2,22.0,30.11,South,180,0.0,0.0,58,0.00,,,0.00,pywws,2013-01-01 05:02:00,
2013-01-01 00:03:00,35.2,22.0,30.11,North,0,0.0,0.0,58,0.00,,,0.00,pywws,2013-01-01 05:03:00,
2013-01-01 00:08:00,35.1,22.2,30.12,SW,225,1.6,2.2,59,0.00,,,0.00,pywws,2013-01-01 05:08:00,
2013-01-01 00:11:00,35.2,22.4,30.11,West,270,0.0,0.0,59,0.00,,,0.00,pywws,2013-01-01 05:11:00,
2013-01-01 00:16:00,35.4,22.1,30.11,East,90,1.6,2.2,58,0.00,,,0.00,pywws,2013-01-01 05:16:00,
2013-01-01 00:22:00,35.6,22.7,30.09,SE,135,0.0,0.0,59,0.00,,,0.00,pywws,2013-01-01 05:22:00,
2013-01-01 00:28:00,35.4,23.3,30.09,NE,45,0.0,1.6,61,0.00,,,0.00,pywws,2013-01-01 05:28:00,
2013-01-01 00:33:00,35.2,23.2,30.09,NW,315,0.0,0.0,61,0.00,,,0.00,pywws,2013-01-01 05:33:00,
2013-01-01 00:39:00,35.1,23.0,30.09,NW,315,0.0,0.0,61,0.00,,,0.00,pywws,2013-01-01 05:39:00,
2013-01-01 00:45:00,35.1,23.0,30.09,NW,315,0.0,0.0,61,0.00,,,0.00,pywws,2013-01-01 05:45:00,
2013-01-01 00:51:00,35.1,23.0,30.09,SW,225,0.0,0.0,61,0.00,,,0.00,pywws,2013-01-01 05:51:00,
2013-01-01 00:56:00,35.2,23.5,30.09,SE,135,0.7,1.6,62,0.00,,,0.00,pywws,2013-01-01 05:56:00,
2013-01-01 01:04:00,35.4,23.7,30.08,South,180,0.7,2.2,62,0.00,,,0.00,pywws,2013-01-01 06:04:00,
2013-01-01 01:11:00,35.6,23.5,30.07,West,270,0.7,1.6,61,0.00,,,0.00,pywws,2013-01-01 06:11:00,
2013-01-01 01:16:00,35.4,23.7,30.08,North,0,0.0,0.7,62,0.00,,,0.00,pywws,2013-01-01 06:16:00,
2013-01-01 01:22:00,35.2,23.5,30.08,SW,225,0.7,1.6,62,0.00,,,0.00,pywws,2013-01-01 06:22:00,
2013-01-01 01:28:00,35.4,24.1,30.08,SE,135,0.7,1.6,63,0.00,,,0.00,pywws,2013-01-01 06:28:00,
2013-01-01 01:33:00,35.4,24.1,30.08,West,270,0.7,1.6,63,0.00,,,0.00,pywws,2013-01-01 06:33:00,
2013-01-01 01:38:00,35.4,23.7,30.08,East,90,0.0,0.0,62,0.00,,,0.00,pywws,2013-01-01 06:38:00,
2013-01-01 01:43:00,35.2,23.9,30.09,North,0,0.0,0.0,63,0.00,,,0.00,pywws,2013-01-01 06:43:00,
2013-01-01 01:48:00,35.2,23.9,30.08,NE,45,0.0,0.0,63,0.00,,,0.00,pywws,2013-01-01 06:48:00,
2013-01-01 01:58:00,35.1,24.5,30.06,NE,45,1.6,2.2,65,0.00,,,0.00,pywws,2013-01-01 06:58:00,
2013-01-01 02:04:00,35.2,24.3,30.08,South,180,0.0,0.7,64,0.00,,,0.00,pywws,2013-01-01 07:04:00,
2013-01-01 02:09:00,35.4,24.5,30.09,South,180,0.0,0.0,64,0.00,,,0.00,pywws,2013-01-01 07:09:00,
2013-01-01 02:15:00,35.4,24.5,30.09,SE,135,0.7,1.6,64,0.00,,,0.00,pywws,2013-01-01 07:15:00,
2013-01-01 02:20:00,35.6,24.3,30.08,NE,45,0.0,0.7,63,0.00,,,0.00,pywws,2013-01-01 07:20:00,
2013-01-01 02:26:00,35.4,24.1,30.08,NE,45,0.0,0.0,63,0.00,,,0.00,pywws,2013-01-01 07:26:00,
2013-01-01 02:32:00,35.4,24.1,30.08,NE,45,0.0,0.0,63,0.00,,,0.00,pywws,2013-01-01 07:32:00,
2013-01-01 02:37:00,35.4,24.1,30.08,SW,225,1.6,2.2,63,0.00,,,0.00,pywws,2013-01-01 07:37:00,
2013-01-01 02:44:00,35.2,23.9,30.08,NE,45,0.0,0.0,63,0.00,,,0.00,pywws,2013-01-01 07:44:00,
2013-01-01 02:50:00,35.1,23.8,30.07,SW,225,1.6,2.2,63,0.00,,,0.00,pywws,2013-01-01 07:50:00,
2013-01-01 02:56:00,35.1,23.8,30.07,West,270,0.0,0.7,63,0.00,,,0.00,pywws,2013-01-01 07:56:00,
2013-01-01 03:01:00,35.1,23.8,30.07,West,270,0.0,0.0,63,0.00,,,0.00,pywws,2013-01-01 08:01:00,
2013-01-01 03:07:00,35.1,24.1,30.06,NE,45,0.7,1.6,64,0.00,,,0.00,pywws,2013-01-01 08:07:00,
2013-01-01 03:12:00,34.9,24.0,30.06,West,270,0.0,0.0,64,0.00,,,0.00,pywws,2013-01-01 08:12:00,
2013-01-01 03:18:00,35.1,24.1,30.06,SW,225,1.6,2.2,64,0.00,,,0.00,pywws,2013-01-01 08:18:00,
2013-01-01 03:24:00,35.1,24.1,30.07,SW,225,1.6,3.1,64,0.00,,,0.00,pywws,2013-01-01 08:24:00,
2013-01-01 03:29:00,35.4,24.5,30.06,NW,315,0.0,0.7,64,0.00,,,0.00,pywws,2013-01-01 08:29:00,
2013-01-01 03:35:00,35.4,24.5,30.06,NE,45,0.7,1.6,64,0.00,,,0.00,pywws,2013-01-01 08:35:00,
2013-01-01 03:40:00,35.2,24.3,30.06,NE,45,0.0,0.7,64,0.00,,,0.00,pywws,2013-01-01 08:40:00,
2013-01-01 03:46:00,35.2,24.3,30.06,SW,225,0.7,1.6,64,0.00,,,0.00,pywws,2013-01-01 08:46:00,
2013-01-01 03:52:00,35.4,24.5,30.06,West,270,0.7,1.6,64,0.00,,,0.00,pywws,2013-01-01 08:52:00,
2013-01-01 03:57:00,35.4,24.8,30.06,South,180,1.6,2.2,65,0.00,,,0.00,pywws,2013-01-01 08:57:00,
2013-01-01 04:03:00,35.4,24.5,30.06,West,270,0.0,0.0,64,0.00,,,0.00,pywws,2013-01-01 09:03:00,
2013-01-01 04:09:00,35.4,24.8,30.06,NE,45,0.0,0.7,65,0.00,,,0.00,pywws,2013-01-01 09:09:00,
2013-01-01 04:16:00,35.2,25.0,30.06,SW,225,0.7,1.6,66,0.00,,,0.00,pywws,2013-01-01 09:16:00,
2013-01-01 04:22:00,35.4,25.2,30.06,NE,45,0.0,0.0,66,0.00,,,0.00,pywws,2013-01-01 09:22:00,
2013-01-01 04:28:00,35.4,24.8,30.06,South,180,0.0,1.6,65,0.00,,,0.00,pywws,2013-01-01 09:28:00,
2013-01-01 04:33:00,35.6,24.6,30.06,NE,45,0.0,0.0,64,0.00,,,0.00,pywws,2013-01-01 09:33:00,
2013-01-01 04:39:00,35.4,25.2,30.06,South,180,0.0,0.0,66,0.00,,,0.00,pywws,2013-01-01 09:39:00,
2013-01-01 04:44:00,35.4,25.2,30.05,NE,45,0.0,0.0,66,0.00,,,0.00,pywws,2013-01-01 09:44:00,
2013-01-01 04:50:00,35.4,25.6,30.05,South,180,0.0,1.6,67,0.00,,,0.00,pywws,2013-01-01 09:50:00,
2013-01-01 04:56:00,35.6,25.4,30.06,East,90,0.7,1.6,66,0.00,,,0.00,pywws,2013-01-01 09:56:00,
2013-01-01 05:01:00,35.6,25.4,30.06,NE,45,0.0,1.6,66,0.00,,,0.00,pywws,2013-01-01 10:01:00,
2013-01-01 05:07:00,35.6,25.4,30.07,North,0,0.0,0.0,66,0.00,,,0.00,pywws,2013-01-01 10:07:00,
2013-01-01 05:12:00,35.6,25.4,30.07,North,0,0.0,0.7,66,0.00,,,0.00,pywws,2013-01-01 10:12:00,
2013-01-01 05:18:00,35.8,25.2,30.06,SW,225,0.7,2.2,65,0.00,,,0.00,pywws,2013-01-01 10:18:00,
2013-01-01 05:24:00,35.8,24.8,30.07,SW,225,2.2,3.8,64,0.00,,,0.00,pywws,2013-01-01 10:24:00,
2013-01-01 05:30:00,36.0,25.0,30.07,North,0,0.0,0.0,64,0.00,,,0.00,pywws,2013-01-01 10:30:00,
2013-01-01 05:36:00,35.8,25.2,30.08,SW,225,0.0,0.0,65,0.00,,,0.00,pywws,2013-01-01 10:36:00,
2013-01-01 05:41:00,35.8,25.6,30.08,NE,45,0.0,0.0,66,0.00,,,0.00,pywws,2013-01-01 10:41:00,
2013-01-01 05:47:00,35.8,25.6,30.08,North,0,1.6,2.2,66,0.00,,,0.00,pywws,2013-01-01 10:47:00,
2013-01-01 05:52:00,35.6,25.4,30.09,East,90,0.0,0.7,66,0.00,,,0.00,pywws,2013-01-01 10:52:00,
2013-01-01 05:58:00,35.6,25.7,30.09,NE,45,0.0,0.0,67,0.00,,,0.00,pywws,2013-01-01 10:58:00,
2013-01-01 06:04:00,35.4,26.3,30.09,NE,45,0.0,0.0,69,0.00,,,0.00,pywws,2013-01-01 11:04:00,
2013-01-01 06:10:00,35.4,26.3,30.10,West,270,0.0,0.0,69,0.00,,,0.00,pywws,2013-01-01 11:10:00,
2013-01-01 06:16:00,35.4,26.3,30.10,North,0,0.0,1.6,69,0.00,,,0.00,pywws,2013-01-01 11:16:00,
2013-01-01 06:21:00,35.6,25.7,30.10,South,180,0.0,0.0,67,0.00,,,0.00,pywws,2013-01-01 11:21:00,
2013-01-01 06:27:00,35.8,25.6,30.11,South,180,0.0,0.0,66,0.00,,,0.00,pywws,2013-01-01 11:27:00,
2013-01-01 06:32:00,35.8,25.2,30.10,West,270,0.0,0.0,65,0.00,,,0.00,pywws,2013-01-01 11:32:00,
2013-01-01 06:39:00,36.0,25.4,30.11,NE,45,0.0,0.0,65,0.00,,,0.00,pywws,2013-01-01 11:39:00,
2013-01-01 06:44:00,36.0,25.4,30.10,NW,315,0.0,0.0,65,0.00,,,0.00,pywws,2013-01-01 11:44:00,
2013-01-01 06:50:00,36.1,25.9,30.10,South,180,0.0,0.0,66,0.00,,,0.00,pywws,2013-01-01 11:50:00,
2013-01-01 06:56:00,36.5,26.6,30.09,SW,225,0.7,1.6,67,0.00,,,0.00,pywws,2013-01-01 11:56:00,
2013-01-01 07:01:00,36.5,27.0,30.08,SW,225,2.2,3.8,68,0.00,,,0.00,pywws,2013-01-01 12:01:00,
2013-01-01 07:07:00,36.3,26.4,30.08,North,0,3.1,4.5,67,0.00,,,0.00,pywws,2013-01-01 12:07:00,
2013-01-01 07:12:00,36.0,26.8,30.08,North,0,0.0,0.7,69,0.00,,,0.00,pywws,2013-01-01 12:12:00,
2013-01-01 07:18:00,36.0,27.5,30.09,South,180,0.7,1.6,71,0.00,,,0.00,pywws,2013-01-01 12:18:00,
2013-01-01 07:24:00,36.1,28.0,30.09,SW,225,0.7,1.6,72,0.00,,,0.00,pywws,2013-01-01 12:24:00,
2013-01-01 07:29:00,35.8,28.0,30.09,West,270,0.7,1.6,73,0.00,,,0.00,pywws,2013-01-01 12:29:00,
2013-01-01 07:36:00,35.6,28.1,30.09,South,180,0.7,1.6,74,0.00,,,0.00,pywws,2013-01-01 12:36:00,
2013-01-01 07:41:00,35.8,28.6,30.10,SW,225,0.0,1.6,75,0.00,,,0.00,pywws,2013-01-01 12:41:00,
2013-01-01 07:48:00,35.8,29.0,30.10,NW,315,0.0,0.0,76,0.00,,,0.00,pywws,2013-01-01 12:48:00,
2013-01-01 07:54:00,35.6,28.8,30.10,SW,225,0.7,2.2,76,0.00,,,0.00,pywws,2013-01-01 12:54:00,
2013-01-01 08:00:00,35.8,29.0,30.11,West,270,0.0,1.6,76,0.01,,,0.01,pywws,2013-01-01 13:00:00,
2013-01-01 08:05:00,35.8,29.0,30.11,SW,225,1.6,2.2,76,0.01,,,0.01,pywws,2013-01-01 13:05:00,
2013-01-01 08:12:00,35.8,29.0,30.10,West,270,1.6,2.2,76,0.01,,,0.01,pywws,2013-01-01 13:12:00,
2013-01-01 08:19:00,35.8,28.6,30.10,NW,315,0.0,0.0,75,0.01,,,0.01,pywws,2013-01-01 13:19:00,
2013-01-01 08:24:00,35.6,28.8,30.11,NE,45,0.0,0.7,76,0.01,,,0.01,pywws,2013-01-01 13:24:00,
2013-01-01 08:30:00,35.6,28.8,30.10,NE,45,0.7,1.6,76,0.01,,,0.01,pywws,2013-01-01 13:30:00,
2013-01-01 08:36:00,35.8,29.0,30.11,West,270,0.0,1.6,76,0.01,,,0.01,pywws,2013-01-01 13:36:00,
2013-01-01 08:41:00,36.0,29.1,30.11,SW,225,0.7,1.6,76,0.01,,,0.01,pywws,2013-01-01 13:41:00,
2013-01-01 08:47:00,36.0,29.1,30.10,NE,45,0.0,0.7,76,0.01,,,0.01,pywws,2013-01-01 13:47:00,
2013-01-01 08:52:00,36.0,29.1,30.10,NW,315,0.7,1.6,76,0.01,,,0.01,pywws,2013-01-01 13:52:00,
2013-01-01 08:58:00,36.0,29.1,30.10,North,0,0.0,0.7,76,0.00,,,0.01,pywws,2013-01-01 13:58:00,
2013-01-01 09:04:00,36.0,29.1,30.11,West,270,0.0,0.7,76,0.00,,,0.01,pywws,2013-01-01 14:04:00,
2013-01-01 09:10:00,36.5,29.0,30.11,NW,315,2.2,3.8,74,0.00,,,0.01,pywws,2013-01-01 14:10:00,
2013-01-01 09:16:00,36.9,29.4,30.10,East,90,0.0,1.6,74,0.00,,,0.01,pywws,2013-01-01 14:16:00,
2013-01-01 09:21:00,37.2,29.7,30.10,NW,315,1.6,3.1,74,0.00,,,0.01,pywws,2013-01-01 14:21:00,
2013-01-01 09:27:00,37.6,31.0,30.11,NE,45,0.0,0.0,77,0.00,,,0.01,pywws,2013-01-01 14:27:00,
2013-01-01 09:32:00,37.9,31.4,30.10,ENE,68,0.0,1.6,77,0.00,,,0.01,pywws,2013-01-01 14:32:00,
2013-01-01 09:38:00,38.3,31.7,30.10,NW,315,0.7,2.2,77,0.00,,,0.01,pywws,2013-01-01 14:38:00,
2013-01-01 09:44:00,38.5,31.9,30.10,South,180,0.0,0.0,77,0.00,,,0.01,pywws,2013-01-01 14:44:00,
2013-01-01 09:49:00,39.0,32.8,30.11,NW,315,0.7,1.6,78,0.00,,,0.01,pywws,2013-01-01 14:49:00,
2013-01-01 09:55:00,39.0,32.4,30.11,West,270,0.0,0.7,77,0.00,,,0.01,pywws,2013-01-01 14:55:00,
2013-01-01 10:00:00,39.2,32.9,30.11,NE,45,0.7,1.6,78,0.00,,,0.01,pywws,2013-01-01 15:00:00,
2013-01-01 10:06:00,39.2,33.2,30.11,NE,45,0.0,0.7,79,0.00,,,0.01,pywws,2013-01-01 15:06:00,
2013-01-01 10:12:00,39.2,33.2,30.11,East,90,0.0,0.7,79,0.00,,,0.01,pywws,2013-01-01 15:12:00,
2013-01-01 10:18:00,39.2,33.6,30.12,East,90,0.0,0.0,80,0.00,,,0.01,pywws,2013-01-01 15:18:00,
2013-01-01 10:24:00,39.2,33.6,30.12,NE,45,0.0,0.0,80,0.00,,,0.01,pywws,2013-01-01 15:24:00,
2013-01-01 10:29:00,39.0,34.3,30.11,NE,45,0.0,0.0,83,0.00,,,0.01,pywws,2013-01-01 15:29:00,
2013-01-01 10:35:00,38.8,34.7,30.09,NE,45,1.6,2.2,85,0.00,,,0.01,pywws,2013-01-01 15:35:00,
2013-01-01 10:40:00,38.3,34.2,30.09,NE,45,1.6,2.2,85,0.01,,,0.02,pywws,2013-01-01 15:40:00,
2013-01-01 10:46:00,37.9,34.1,30.09,South,180,1.6,3.1,86,0.01,,,0.02,pywws,2013-01-01 15:46:00,
2013-01-01 10:52:00,38.3,34.5,30.10,NE,45,0.0,0.7,86,0.01,,,0.02,pywws,2013-01-01 15:52:00,
2013-01-01 10:57:00,38.5,34.7,30.10,SW,225,0.0,0.7,86,0.01,,,0.02,pywws,2013-01-01 15:57:00,
2013-01-01 11:03:00,38.8,35.3,30.09,NE,45,1.6,2.2,87,0.01,,,0.02,pywws,2013-01-01 16:03:00,
2013-01-01 11:08:00,39.0,35.8,30.09,SE,135,0.0,0.7,88,0.01,,,0.02,pywws,2013-01-01 16:08:00,
2013-01-01 11:14:00,39.4,35.8,30.08,East,90,0.0,0.0,87,0.01,,,0.02,pywws,2013-01-01 16:14:00,
2013-01-01 11:20:00,39.4,35.8,30.08,East,90,0.7,0.7,87,0.01,,,0.02,pywws,2013-01-01 16:20:00,
2013-01-01 11:25:00,39.4,36.1,30.09,NE,45,0.0,0.7,88,0.02,,,0.04,pywws,2013-01-01 16:25:00,
2013-01-01 11:31:00,39.2,35.9,30.09,NE,45,0.7,1.6,88,0.02,,,0.04,pywws,2013-01-01 16:31:00,
2013-01-01 11:36:00,39.0,36.1,30.09,NE,45,0.7,1.6,89,0.01,,,0.04,pywws,2013-01-01 16:36:00,
2013-01-01 11:42:00,39.0,36.1,30.09,East,90,0.7,2.2,89,0.02,,,0.05,pywws,2013-01-01 16:42:00,
2013-01-01 11:48:00,38.8,35.9,30.08,East,90,0.0,0.0,89,0.02,,,0.05,pywws,2013-01-01 16:48:00,
2013-01-01 11:54:00,39.0,36.3,30.07,NE,45,0.7,1.6,90,0.04,,,0.06,pywws,2013-01-01 16:54:00,
2013-01-01 12:00:00,38.8,36.4,30.07,NE,45,0.0,1.6,91,0.04,,,0.06,pywws,2013-01-01 17:00:00,
2013-01-01 12:05:00,38.8,36.4,30.06,NE,45,0.7,1.6,91,0.05,,,0.07,pywws,2013-01-01 17:05:00,
2013-01-01 12:11:00,38.7,36.5,30.06,NE,45,0.7,2.2,92,0.05,,,0.07,pywws,2013-01-01 17:11:00,
2013-01-01 12:16:00,38.7,36.8,30.06,NE,45,0.0,0.7,93,0.06,,,0.08,pywws,2013-01-01 17:16:00,
2013-01-01 12:22:00,38.7,36.8,30.05,South,180,0.0,0.7,93,0.06,,,0.08,pywws,2013-01-01 17:22:00,
2013-01-01 12:28:00,39.2,37.1,30.05,East,90,0.0,0.7,92,0.05,,,0.08,pywws,2013-01-01 17:28:00,
2013-01-01 12:33:00,39.6,37.7,30.04,South,180,2.2,3.1,93,0.06,,,0.09,pywws,2013-01-01 17:33:00,
2013-01-01 12:39:00,40.3,38.7,30.03,East,90,0.7,2.2,94,0.06,,,0.09,pywws,2013-01-01 17:39:00,
2013-01-01 12:44:00,41.2,39.3,30.03,SW,225,2.2,4.5,93,0.05,,,0.09,pywws,2013-01-01 17:44:00,
2013-01-01 12:50:00,41.7,40.1,30.03,SE,135,0.7,1.6,94,0.05,,,0.09,pywws,2013-01-01 17:50:00,
2013-01-01 12:56:00,42.3,40.7,30.03,SW,225,0.7,1.6,94,0.04,,,0.09,pywws,2013-01-01 17:56:00,
2013-01-01 13:01:00,42.6,41.0,30.02,North,0,1.6,3.8,94,0.02,,,0.09,pywws,2013-01-01 18:01:00,
2013-01-01 13:07:00,42.8,40.6,30.02,SE,135,0.0,1.6,92,0.02,,,0.09,pywws,2013-01-01 18:07:00,
2013-01-01 13:12:00,43.0,40.8,30.02,East,90,0.7,2.2,92,0.02,,,0.09,pywws,2013-01-01 18:12:00,
2013-01-01 13:18:00,43.2,41.0,30.01,East,90,2.2,3.8,92,0.01,,,0.09,pywws,2013-01-01 18:18:00,
2013-01-01 13:24:00,43.3,41.2,30.01,SE,135,0.0,1.6,92,0.01,,,0.09,pywws,2013-01-01 18:24:00,
2013-01-01 13:30:00,43.7,41.5,30.01,South,180,0.7,1.6,92,0.01,,,0.09,pywws,2013-01-01 18:30:00,
2013-01-01 13:36:00,44.1,41.9,30.01,SE,135,0.7,2.2,92,0.00,,,0.09,pywws,2013-01-01 18:36:00,
2013-01-01 13:41:00,44.4,42.2,30.01,SW,225,0.7,1.6,92,0.00,,,0.09,pywws,2013-01-01 18:41:00,
2013-01-01 13:48:00,44.4,42.2,30.01,NE,45,0.7,1.6,92,0.00,,,0.09,pywws,2013-01-01 18:48:00,
2013-01-01 13:54:00,44.4,42.2,30.01,East,90,0.7,1.6,92,0.00,,,0.09,pywws,2013-01-01 18:54:00,
2013-01-01 14:00:00,43.9,41.7,30.01,South,180,0.0,0.7,92,0.00,,,0.09,pywws,2013-01-01 19:00:00,
2013-01-01 14:07:00,43.9,41.7,30.00,NE,45,0.0,0.7,92,0.00,,,0.09,pywws,2013-01-01 19:07:00,
2013-01-01 14:12:00,43.5,41.1,30.01,NE,45,0.7,1.6,91,0.00,,,0.09,pywws,2013-01-01 19:12:00,
2013-01-01 14:18:00,43.5,41.4,30.00,East,90,0.7,1.6,92,0.00,,,0.09,pywws,2013-01-01 19:18:00,
2013-01-01 14:24:00,43.5,41.4,30.00,East,90,0.7,1.6,92,0.01,,,0.11,pywws,2013-01-01 19:24:00,
2013-01-01 14:30:00,43.5,41.4,30.00,NE,45,0.0,0.7,92,0.01,,,0.11,pywws,2013-01-01 19:30:00,
2013-01-01 14:36:00,43.3,41.2,30.00,South,180,0.7,1.6,92,0.01,,,0.11,pywws,2013-01-01 19:36:00,
2013-01-01 14:41:00,43.7,41.5,30.00,SE,135,0.0,0.7,92,0.01,,,0.11,pywws,2013-01-01 19:41:00,
2013-01-01 14:47:00,43.7,41.5,30.00,ESE,112,0.7,1.6,92,0.01,,,0.11,pywws,2013-01-01 19:47:00,
2013-01-01 14:52:00,43.7,41.5,30.00,NE,45,0.0,1.6,92,0.01,,,0.11,pywws,2013-01-01 19:52:00,
2013-01-01 14:58:00,43.5,41.1,30.00,East,90,1.6,3.1,91,0.01,,,0.11,pywws,2013-01-01 19:58:00,
2013-01-01 15:04:00,43.5,41.1,30.00,SE,135,0.0,1.6,91,0.01,,,0.11,pywws,2013-01-01 20:04:00,
2013-01-01 15:09:00,43.5,41.1,30.00,South,180,0.7,1.6,91,0.01,,,0.11,pywws,2013-01-01 20:09:00,
2013-01-01 15:16:00,43.5,41.1,30.00,South,180,0.0,0.7,91,0.01,,,0.11,pywws,2013-01-01 20:16:00,
2013-01-01 15:21:00,43.7,41.2,30.00,NE,45,0.0,0.0,91,0.01,,,0.11,pywws,2013-01-01 20:21:00,
2013-01-01 15:27:00,43.7,41.2,30.00,East,90,0.0,0.7,91,0.00,,,0.11,pywws,2013-01-01 20:27:00,
2013-01-01 15:32:00,43.5,40.8,30.00,SW,225,0.0,0.7,90,0.00,,,0.11,pywws,2013-01-01 20:32:00,
2013-01-01 15:38:00,43.3,40.6,30.01,SW,225,0.7,1.6,90,0.00,,,0.11,pywws,2013-01-01 20:38:00,
2013-01-01 15:44:00,43.3,40.6,30.01,SW,225,0.7,1.6,90,0.00,,,0.11,pywws,2013-01-01 20:44:00,
2013-01-01 15:49:00,43.3,40.9,30.01,West,270,1.6,2.2,91,0.00,,,0.11,pywws,2013-01-01 20:49:00,
2013-01-01 15:55:00,43.2,41.0,30.01,NE,45,0.0,0.7,92,0.00,,,0.11,pywws,2013-01-01 20:55:00,
2013-01-01 16:01:00,43.2,41.0,30.01,NE,45,0.0,0.0,92,0.01,,,0.12,pywws,2013-01-01 21:01:00,
2013-01-01 16:08:00,43.2,41.0,30.01,NW,315,0.0,0.0,92,0.01,,,0.12,pywws,2013-01-01 21:08:00,
2013-01-01 16:13:00,43.0,40.8,30.01,NW,315,0.0,0.0,92,0.01,,,0.12,pywws,2013-01-01 21:13:00,
2013-01-01 16:19:00,43.0,41.1,30.01,West,270,0.7,2.2,93,0.02,,,0.13,pywws,2013-01-01 21:19:00,
2013-01-01 16:24:00,43.0,41.1,30.01,East,90,0.0,0.0,93,0.02,,,0.13,pywws,2013-01-01 21:24:00,
2013-01-01 16:30:00,43.0,41.1,30.01,South,180,0.0,0.7,93,0.02,,,0.13,pywws,2013-01-01 21:30:00,
2013-01-01 16:36:00,43.0,41.1,30.01,South,180,0.0,0.0,93,0.04,,,0.14,pywws,2013-01-01 21:36:00,
2013-01-01 16:42:00,43.0,41.1,30.02,NE,45,0.0,0.0,93,0.04,,,0.14,pywws,2013-01-01 21:42:00,
2013-01-01 16:48:00,43.0,41.1,30.02,NE,45,0.0,0.0,93,0.04,,,0.14,pywws,2013-01-01 21:48:00,
2013-01-01 16:53:00,42.8,40.9,30.02,SW,225,0.0,0.7,93,0.04,,,0.14,pywws,2013-01-01 21:53:00,
2013-01-01 16:59:00,43.0,41.1,30.02,South,180,0.7,1.6,93,0.05,,,0.15,pywws,2013-01-01 21:59:00,
2013-01-01 17:04:00,43.2,41.3,30.01,South,180,0.0,0.0,93,0.04,,,0.15,pywws,2013-01-01 22:04:00,
2013-01-01 17:12:00,43.2,41.3,30.01,South,180,0.7,1.6,93,0.04,,,0.15,pywws,2013-01-01 22:12:00,
2013-01-01 17:18:00,43.2,41.3,30.01,South,180,0.0,0.0,93,0.04,,,0.17,pywws,2013-01-01 22:18:00,
2013-01-01 17:24:00,43.0,41.1,30.01,South,180,0.0,0.0,93,0.04,,,0.17,pywws,2013-01-01 22:24:00,
2013-01-01 17:29:00,42.8,40.9,30.00,South,180,0.0,0.0,93,0.04,,,0.17,pywws,2013-01-01 22:29:00,
2013-01-01 17:35:00,42.8,40.9,30.00,South,180,0.0,0.0,93,0.02,,,0.17,pywws,2013-01-01 22:35:00,
2013-01-01 17:43:00,42.6,41.0,30.00,South,180,0.0,0.0,94,0.02,,,0.17,pywws,2013-01-01 22:43:00,
2013-01-01 17:49:00,42.6,41.0,29.99,South,180,0.0,0.0,94,0.02,,,0.17,pywws,2013-01-01 22:49:00,
2013-01-01 17:56:00,42.4,40.8,29.99,South,180,0.0,0.0,94,0.01,,,0.17,pywws,2013-01-01 22:56:00,
2013-01-01 18:04:00,42.3,40.7,30.00,South,180,0.0,0.0,94,0.01,,,0.17,pywws,2013-01-01 23:04:00,
2013-01-01 18:09:00,42.3,40.7,29.99,South,180,0.0,0.0,94,0.01,,,0.17,pywws,2013-01-01 23:09:00,
2013-01-01 18:15:00,42.3,40.9,29.99,South,180,0.7,1.6,95,0.01,,,0.17,pywws,2013-01-01 23:15:00,
2013-01-01 18:20:00,42.3,40.9,29.99,South,180,0.0,0.7,95,0.00,,,0.17,pywws,2013-01-01 23:20:00,
2013-01-01 18:26:00,42.3,40.9,30.00,South,180,0.0,0.7,95,0.00,,,0.17,pywws,2013-01-01 23:26:00,
2013-01-01 18:32:00,42.3,40.9,30.01,West,270,0.0,0.0,95,0.01,,,0.18,pywws,2013-01-01 23:32:00,
2013-01-01 18:37:00,42.3,40.9,30.00,West,270,0.0,0.0,95,0.01,,,0.18,pywws,2013-01-01 23:37:00,
2013-01-01 18:44:00,42.1,40.8,30.00,West,270,0.0,0.0,95,0.01,,,0.18,pywws,2013-01-01 23:44:00,
2013-01-01 18:49:00,42.1,40.8,30.01,South,180,0.0,1.6,95,0.01,,,0.18,pywws,2013-01-01 23:49:00,
2013-01-01 18:55:00,42.3,40.9,30.01,SW,225,0.0,0.0,95,0.01,,,0.18,pywws,2013-01-01 23:55:00,
2013-01-01 19:01:00,42.3,40.9,30.01,NE,45,0.0,0.0,95,0.01,,,0.18,pywws,2013-01-02 00:01:00,
2013-01-01 19:07:00,42.1,40.8,30.01,NE,45,0.0,0.0,95,0.01,,,0.18,pywws,2013-01-02 00:07:00,
2013-01-01 19:12:00,41.9,40.6,30.01,NE,45,0.0,0.0,95,0.01,,,0.18,pywws,2013-01-02 00:12:00,
2013-01-01 19:18:00,42.1,40.8,30.01,NE,45,0.0,0.0,95,0.01,,,0.18,pywws,2013-01-02 00:18:00,
2013-01-01 19:24:00,42.1,41.0,30.01,SW,225,0.0,0.0,96,0.01,,,0.18,pywws,2013-01-02 00:24:00,
2013-01-01 19:30:00,42.1,41.0,30.01,SW,225,0.0,0.0,96,0.00,,,0.18,pywws,2013-01-02 00:30:00,
2013-01-01 19:36:00,42.1,41.0,30.01,SW,225,0.0,0.0,96,0.00,,,0.18,pywws,2013-01-02 00:36:00,
2013-01-01 19:41:00,41.9,40.8,30.01,East,90,0.0,0.7,96,0.00,,,0.18,pywws,2013-01-02 00:41:00,
2013-01-01 19:47:00,41.9,40.8,30.01,SE,135,0.0,0.0,96,0.00,,,0.18,pywws,2013-01-02 00:47:00,
2013-01-01 19:54:00,41.9,40.8,30.01,SE,135,0.0,0.0,96,0.00,,,0.18,pywws,2013-01-02 00:54:00,
2013-01-01 20:01:00,41.9,40.8,30.01,SE,135,0.0,0.0,96,0.00,,,0.18,pywws,2013-01-02 01:01:00,
2013-01-01 20:07:00,41.9,40.8,30.01,SE,135,0.0,0.0,96,0.01,,,0.19,pywws,2013-01-02 01:07:00,
2013-01-01 20:12:00,41.9,40.8,30.01,East,90,0.0,0.7,96,0.01,,,0.19,pywws,2013-01-02 01:12:00,
2013-01-01 20:18:00,41.7,40.7,30.00,East,90,0.0,0.0,96,0.01,,,0.19,pywws,2013-01-02 01:18:00,
2013-01-01 20:24:00,41.7,40.7,30.00,East,90,0.0,0.0,96,0.01,,,0.19,pywws,2013-01-02 01:24:00,
2013-01-01 20:29:00,41.7,40.7,30.00,East,90,0.0,0.0,96,0.01,,,0.19,pywws,2013-01-02 01:29:00,
2013-01-01 20:35:00,41.9,40.8,29.99,East,90,0.7,0.7,96,0.01,,,0.19,pywws,2013-01-02 01:35:00,
2013-01-01 20:41:00,41.9,40.8,29.99,SW,225,1.6,2.2,96,0.01,,,0.19,pywws,2013-01-02 01:41:00,
2013-01-01 20:47:00,41.9,40.8,29.99,SW,225,0.0,0.7,96,0.01,,,0.19,pywws,2013-01-02 01:47:00,
2013-01-01 20:54:00,42.1,41.0,30.00,SW,225,0.0,0.0,96,0.01,,,0.19,pywws,2013-01-02 01:54:00,
2013-01-01 21:00:00,42.1,41.0,30.00,SW,225,0.0,0.0,96,0.01,,,0.19,pywws,2013-01-02 02:00:00,
2013-01-01 21:06:00,42.1,41.0,30.00,SW,225,0.0,0.0,96,0.01,,,0.19,pywws,2013-01-02 02:06:00,
2013-01-01 21:12:00,42.1,41.0,30.00,NE,45,0.0,0.0,96,0.01,,,0.20,pywws,2013-01-02 02:12:00,
2013-01-01 21:17:00,41.9,40.8,30.01,NE,45,0.0,0.0,96,0.01,,,0.20,pywws,2013-01-02 02:17:00,
2013-01-01 21:23:00,41.9,40.8,30.01,West,270,0.0,0.0,96,0.01,,,0.20,pywws,2013-01-02 02:23:00,
2013-01-01 21:28:00,42.1,41.0,30.02,NW,315,0.0,0.7,96,0.01,,,0.20,pywws,2013-01-02 02:28:00,
2013-01-01 21:35:00,41.9,40.8,30.01,NW,315,0.0,0.0,96,0.02,,,0.21,pywws,2013-01-02 02:35:00,
2013-01-01 21:41:00,41.9,40.8,30.01,NW,315,0.0,0.0,96,0.02,,,0.21,pywws,2013-01-02 02:41:00,
2013-01-01 21:47:00,41.9,40.8,30.00,East,90,0.7,1.6,96,0.02,,,0.21,pywws,2013-01-02 02:47:00,
2013-01-01 21:52:00,41.9,40.8,30.00,SW,225,0.7,1.6,96,0.02,,,0.21,pywws,2013-01-02 02:52:00,
2013-01-01 21:58:00,41.9,40.8,30.00,South,180,0.0,0.7,96,0.02,,,0.21,pywws,2013-01-02 02:58:00,
2013-01-01 22:04:00,41.9,40.8,30.01,South,180,0.0,0.0,96,0.02,,,0.21,pywws,2013-01-02 03:04:00,
2013-01-01 22:10:00,41.9,41.1,30.01,SW,225,0.0,1.6,97,0.01,,,0.21,pywws,2013-01-02 03:10:00,
2013-01-01 22:16:00,41.9,41.1,30.00,SE,135,0.0,0.7,97,0.01,,,0.21,pywws,2013-01-02 03:16:00,
2013-01-01 22:21:00,42.1,41.3,30.01,SW,225,0.7,1.6,97,0.01,,,0.21,pywws,2013-01-02 03:21:00,
2013-01-01 22:27:00,42.1,41.3,30.01,East,90,0.0,0.7,97,0.01,,,0.21,pywws,2013-01-02 03:27:00,
2013-01-01 22:32:00,42.3,41.5,29.99,East,90,0.7,1.6,97,0.01,,,0.21,pywws,2013-01-02 03:32:00,
2013-01-01 22:38:00,42.1,41.3,30.00,West,270,0.0,0.0,97,0.00,,,0.21,pywws,2013-01-02 03:38:00,
2013-01-01 22:44:00,42.1,41.3,30.01,SE,135,0.0,0.7,97,0.01,,,0.22,pywws,2013-01-02 03:44:00,
2013-01-01 22:49:00,42.1,41.3,30.00,East,90,0.0,0.0,97,0.01,,,0.22,pywws,2013-01-02 03:49:00,
2013-01-01 22:55:00,42.3,41.5,30.00,SE,135,0.0,0.7,97,0.01,,,0.22,pywws,2013-01-02 03:55:00,
2013-01-01 23:01:00,42.3,41.5,30.00,SE,135,0.0,0.0,97,0.01,,,0.22,pywws,2013-01-02 04:01:00,
2013-01-01 23:07:00,42.3,41.5,30.01,SW,225,0.7,1.6,97,0.01,,,0.22,pywws,2013-01-02 04:07:00,
2013-01-01 23:12:00,42.3,41.5,29.99,SW,225,0.0,0.0,97,0.01,,,0.22,pywws,2013-01-02 04:12:00,
2013-01-01 23:18:00,42.3,41.5,30.00,SW,225,0.0,0.0,97,0.01,,,0.22,pywws,2013-01-02 04:18:00,
2013-01-01 23:24:00,42.3,41.5,30.00,SE,135,0.0,1.6,97,0.01,,,0.22,pywws,2013-01-02 04:24:00,
2013-01-01 23:29:00,42.3,41.5,30.00,SE,135,0.0,0.0,97,0.01,,,0.22,pywws,2013-01-02 04:29:00,
2013-01-01 23:35:00,42.3,41.5,30.01,NW,315,0.0,0.0,97,0.01,,,0.22,pywws,2013-01-02 04:35:00,
2013-01-01 23:40:00,42.3,41.5,30.00,NW,315,0.0,0.0,97,0.01,,,0.22,pywws,2013-01-02 04:40:00,
2013-01-01 23:46:00,42.4,41.6,30.00,West,270,0.0,0.0,97,0.00,,,0.22,pywws,2013-01-02 04:46:00,
2013-01-01 23:52:00,42.4,41.6,29.99,SW,225,0.0,0.0,97,0.00,,,0.22,pywws,2013-01-02 04:52:00,
2013-01-01 23:57:00,42.4,41.6,30.00,SW,225,0.0,0.0,97,0.00,,,0.22,pywws,2013-01-02 04:57:00,